Location: Unspecified
(0.0000°N, 0.0000°E)
Time: 19:05:31
(UTC+01:00)

SJ-6B - Visible Passes

Search period start: 27 February 2017 00:00
Search period end: 09 March 2017 00:00
Orbit: 511 x 585 km, 97.8° (Epoch: 26 February)

Date Brightness Start Highest point End Pass type
(mag) Time Alt. Az. Time Alt. Az. Time Alt. Az.
27 Feb 2.8 20:07:04 10° SSE 20:11:10 70° E 20:15:10 10° N visible
28 Feb 2.9 20:02:17 10° SSE 20:06:19 58° E 20:10:16 10° N visible
01 Mar 3.1 19:57:32 10° SSE 20:01:29 48° E 20:05:20 10° N visible
02 Mar 3.3 19:52:48 10° SSE 19:56:38 40° ENE 20:00:23 10° N visible
03 Mar 3.5 19:48:07 10° SE 19:51:47 33° E 19:55:23 10° NNE visible
04 Mar 3.7 19:43:27 10° SE 19:46:57 28° E 19:50:21 10° NNE visible
05 Mar 3.9 19:38:50 10° SE 19:42:05 24° E 19:45:16 10° NNE visible
05 Mar 6.2 21:15:06 10° WSW 21:16:28 11° WSW 21:17:48 10° W visible
06 Mar 4.1 19:34:16 10° SE 19:37:14 20° E 19:40:09 10° NNE visible
06 Mar 6.0 21:09:35 10° SW 21:11:38 14° WSW 21:13:38 10° WNW visible
07 Mar 5.8 21:04:17 10° SW 21:06:47 16° WSW 21:09:15 10° WNW visible
08 Mar 5.6 20:59:05 10° SSW 21:01:56 19° WSW 21:04:44 10° WNW visible
